Notices

What's New in latest Release from April 7th, 2021:

- Updated Glossary, including Speed of Maximum Gust, and Total Hourly Precipitation

- Updated national and regional climate services offices contacts and prices information

- Addition of station inventory lists for 1981-2010, 1971-2000, and 1961-1990 Normals.

If you haven't already, please take our survey and provide feedback about our website: https://eccc.sondage-survey.ca/f/LanguageSelection.aspx?s=442ca660-fcf1-47c0-95a9-59707d6fd709

Hourly Data Report for October 09, 2019

CARBERRY CS
MANITOBA
Current Station Operator: ECCC - MSC

49°54'20.900" N
99°21'26.800" W
383.50 m
5010547
71170
WZE

Download Data

Hourly Data (October 2019)
Hourly Data Report for October 9, 2019
TIME
LST
Temp Definition
°C
Dew Point Definition
°C
Rel Hum Definition
%
Precip. Amount Definition
mm

Wind Dir Definition
10's deg

Wind Spd Definition
km/h
Visibility Definition
km
Stn Press Definition
kPa
Hmdx Definition


Wind Chill Definition


Weather Definition


00:00 5.2 2.8 84 0.0 2 24   96.19     LegendNANA
01:00 4.6 2.8 88 0.0 36 25   96.29     LegendNANA
02:00 3.9 2.5 90 0.0 36 27   96.42     LegendNANA
03:00 3.8 1.5 85 0.0 1 23   96.46     LegendNANA
04:00 3.7 1.0 82 0.0 1 25   96.44     LegendNANA
05:00 3.2 1.2 87 0.0 36 27   96.54     LegendNANA
06:00 3.0 1.1 88 0.0 36 24   96.58     LegendNANA
07:00 2.1 2.1 100 0.0 36 23   96.70     LegendNANA
08:00 2.1 0.5 90 0.0 1 28   96.69     LegendNANA
09:00 2.2 -0.4 83 0.0 1 29   96.75     LegendNANA
10:00 2.1 -0.6 82 0.0 36 29   96.72     LegendNANA
11:00 2.3 -0.5 82 0.0 36 29   96.77     LegendNANA
12:00 1.9 -0.6 84 0.0 36 30   96.86     LegendNANA
13:00 1.9 -0.8 82 0.0 35 27   96.91     LegendNANA
14:00 1.6 -0.4 86 0.0 36 30   96.93     LegendNANA
15:00 1.1 0.0 92 0.0 35 26   96.99     LegendNANA
16:00 0.7 0.7 100 0.0 34 24   97.10     LegendNANA
17:00 0.3 -0.1 97 0.0 34 25   97.25     LegendNANA
18:00 0.0 -0.5 96 0.0 34 23   97.26   -6 LegendNANA
19:00 -0.5 -0.5 100 0.6 35 19   97.40   -6 LegendNANA
20:00 -0.7 -0.8 100 0.3 35 20   97.45   -6 LegendNANA
21:00 -0.4 -1.1 95 0.0 34 20   97.57   -6 LegendNANA
22:00 -0.3 -2.0 88 0.0 35 23   97.60   -6 LegendNANA
23:00 -0.2 -0.9 95 0.0 35 20   97.63   -5 LegendNANA

Notes on Data Quality.

Legend

  • E = Estimated
  • M = Missing
  • NA = Not Available*
  • [empty] = Indicates an unobserved value
Date modified: